Stations météo

Publicité
Le Havre/Octeville, France (7046): Température de l'air & dewpoint: 09.11.2019 16:00:00 - 15.11.2019 16:00:00 (CET)Le Havre/Octeville, France (7046): Vitesse du vent & gusts: 09.11.2019 16:00:00 - 15.11.2019 16:00:00 (CET)Le Havre/Octeville, France (7046): Direction du vent: 09.11.2019 16:00:00 - 15.11.2019 16:00:00 (CET)Le Havre/Octeville, France (7046): reduced air pressure: 09.11.2019 16:00:00 - 15.11.2019 16:00:00 (CET)Le Havre/Octeville, France (7046): visibility: 09.11.2019 16:00:00 - 15.11.2019 16:00:00 (CET)Le Havre/Octeville, France (7046): Quantités de précipitations: 09.11.2019 16:00:00 - 15.11.2019 16:00:00 (CET)
Date & Time tt [°C] td [°C] ff [km/h] ff [knt] fx [km/h] fx [knt] dd ppp [hPa] vv [km] rr [mm]
15.11.2019 16:00:00 5,8 4,8 18 10 39 21 ENE 999,2 6 -
15.11.2019 15:00:00 6,1 5,2 20 11 32 17 NE 998,9 3,0 5,9
15.11.2019 14:00:00 6,5 5,1 5 3 17 9 ENE 999,2 3,4 0,8
15.11.2019 13:00:00 6,3 5,4 9 5 23 12 NNE 999,4 4,3 4,0
15.11.2019 12:00:00 5,8 4,8 11 6 19 11 E 1000,1 3,3 3,5
15.11.2019 11:00:00 5,8 4,8 5 3 11 6 N 1000,6 3,9 1,0
15.11.2019 10:00:00 5,9 4,7 13 7 34 19 ENE 1001,0 9 3,2
15.11.2019 09:00:00 6,3 4,6 16 8 30 16 NE 1001,1 7 0,2
15.11.2019 08:00:00 4,5 2,2 5 3 7 4 NE 1000,5 37 0,0
15.11.2019 07:00:00 3,3 0,7 5 3 7 4 NE 1000,7 34 0,0
15.11.2019 06:00:00 3,1 0,7 5 3 9 5 ENE 1000,9 25 0,0
15.11.2019 05:00:00 2,3 0,2 5 3 12 6 ENE 1001,1 23 0,0
15.11.2019 04:00:00 2,2 0,1 11 6 14 8 E 1001,9 25 0,0
15.11.2019 03:00:00 1,5 0,3 5 3 8 4 NE 1001,6 31 0,0
15.11.2019 02:00:00 1,4 -0,2 6 4 9 5 E 1001,4 26 0,0
15.11.2019 01:00:00 2,0 0,5 6 4 11 6 E 1001,7 20 0,0
15.11.2019 00:00:00 2,0 0,8 8 4 13 7 ESE 1001,4 10 0,0
14.11.2019 23:00:00 2,3 1,1 10 6 16 8 ESE 1001,2 13 0,0
14.11.2019 22:00:00 2,7 1,5 9 5 13 7 ESE 1000,9 19 0,0
14.11.2019 21:00:00 3,4 2,1 8 4 13 7 E 1000,3 19 0,0
14.11.2019 20:00:00 4,3 2,3 10 5 18 10 ESE 999,4 26 0,0
14.11.2019 19:00:00 5,8 2,4 11 6 25 14 SE 999,2 52 0,0
14.11.2019 18:00:00 6,8 2,7 16 8 23 13 SSE 998,7 60 0,0
14.11.2019 17:00:00 7,8 2,3 14 7 27 14 S 997,5 60 0,0
14.11.2019 16:00:00 8,2 2,8 13 7 23 13 S 997,2 60 0,0
14.11.2019 15:00:00 8,2 3,2 15 8 26 14 S 996,6 60 0,0
14.11.2019 14:00:00 7,8 3,3 16 8 30 16 SW 995,8 20 0,0
14.11.2019 13:00:00 6,9 3,5 16 9 29 16 SSW 995,9 60 0,0
14.11.2019 12:00:00 6,0 2,8 19 10 34 19 SSW 996,2 41 0,0
14.11.2019 11:00:00 5,5 3,0 18 10 34 18 SSW 996,0 47 0,0
14.11.2019 10:00:00 4,8 2,7 20 11 34 19 S 995,4 53 0,0
14.11.2019 09:00:00 4,6 2,8 22 12 39 21 SSW 994,6 47 0,0
14.11.2019 08:00:00 4,5 2,7 23 13 38 21 SSW 993,7 59 0,0
14.11.2019 07:00:00 4,7 3,0 21 11 37 20 SSW 992,6 58 0,0
14.11.2019 06:00:00 4,6 2,9 27 15 41 22 SW 992,3 57 0,0
14.11.2019 05:00:00 4,7 2,9 27 14 40 22 SW 991,9 60 0,0
14.11.2019 04:00:00 4,8 3,0 23 12 40 21 SW 991,4 60 0,0
14.11.2019 03:00:00 5,0 3,5 20 11 44 24 SW 991,3 60 0,0
14.11.2019 02:00:00 5,3 3,5 31 17 52 28 SW 991,0 60 0,0
14.11.2019 01:00:00 5,8 4,0 23 12 47 25 WSW 990,6 19 0,2
14.11.2019 00:00:00 6,0 4,6 23 12 47 25 SW 990,5 4,1 1,4
13.11.2019 23:00:00 6,9 5,0 19 11 40 21 S 991,3 18 1,8
13.11.2019 22:00:00 7,3 4,3 20 11 43 23 S 992,8 9 0,2
13.11.2019 21:00:00 7,5 3,4 21 12 46 25 S 994,0 57 0,0
13.11.2019 20:00:00 7,4 3,4 21 11 39 21 S 995,8 56 0,0
13.11.2019 19:00:00 7,7 3,7 21 11 39 21 S 997,1 51 0,0
13.11.2019 18:00:00 8,0 4,2 17 9 30 16 S 998,2 55 0,0
13.11.2019 17:00:00 8,1 4,7 18 10 43 23 SSW 999,5 60 0,0
13.11.2019 16:00:00 7,6 5,6 16 9 43 23 WSW 1001,0 56 0,2
13.11.2019 15:00:00 8,9 4,3 24 13 36 20 WSW 1001,5 56 0,0
13.11.2019 14:00:00 9,7 5,3 23 13 37 20 W 1002,0 43 0,0
13.11.2019 13:00:00 9,1 5,8 22 12 42 23 WSW 1003,0 42 1,3
13.11.2019 12:00:00 6,5 3,8 11 6 35 19 W 1004,0 2,7 2,8
13.11.2019 11:00:00 7,9 6,0 7 4 29 16 WSW 1004,4 60 0,2
13.11.2019 10:00:00 7,1 4,7 4 2 54 29 WSW 1004,4 56 1,8
13.11.2019 09:00:00 9,4 4,0 13 7 19 10 NNW 1003,9 60 0,0
13.11.2019 08:00:00 8,2 5,0 15 8 32 17 N 1003,8 59 0,2
13.11.2019 07:00:00 7,9 4,5 19 10 32 17 N 1003,5 60 0,0
13.11.2019 06:00:00 7,4 4,5 11 6 39 21 N 1003,3 60 0,0
13.11.2019 05:00:00 9,4 5,0 20 11 32 17 N 1002,8 59 0,2
13.11.2019 04:00:00 8,4 5,3 21 12 41 22 N 1002,9 6 0,4
13.11.2019 03:00:00 9,5 5,1 26 14 50 27 NNW 1002,9 54 0,2
13.11.2019 02:00:00 9,7 4,5 27 14 44 24 NNW 1002,7 59 0,0
13.11.2019 01:00:00 9,9 5,5 27 14 46 25 NNW 1002,5 53 0,0
13.11.2019 00:00:00 9,8 5,4 34 18 54 29 NNW 1002,1 54 0,0
12.11.2019 23:00:00 10,2 6,3 35 19 57 31 NNW 1002,1 17 0,0
12.11.2019 22:00:00 10,0 6,5 35 19 61 33 NW 1001,5 17 0,4
12.11.2019 21:00:00 9,1 6,5 41 22 74 40 WNW 1001,5 9 1,6
12.11.2019 20:00:00 9,0 5,6 39 21 72 39 NW 1001,6 4,2 0,4
12.11.2019 19:00:00 9,2 4,2 40 22 61 33 W 1001,4 20 0,2
12.11.2019 18:00:00 8,8 5,0 35 19 54 29 W 1001,8 37 0,0
12.11.2019 17:00:00 9,1 1,7 37 20 57 31 W 1002,1 37 0,0
12.11.2019 16:00:00 9,3 2,2 35 19 64 34 WNW 1002,2 42 0,0
12.11.2019 15:00:00 8,9 2,9 27 14 72 39 WNW 1002,3 11 0,2
12.11.2019 14:00:00 8,9 1,5 34 19 78 42 WNW 1002,8 46 0,0
12.11.2019 13:00:00 7,5 2,6 26 14 64 35 W 1003,3 53 0,6
12.11.2019 12:00:00 8,2 1,8 27 15 67 36 WNW 1003,5 20 0,6
12.11.2019 11:00:00 9,0 3,0 26 14 54 29 WNW 1003,4 40 0,0
12.11.2019 10:00:00 7,0 1,1 37 20 64 35 WNW 1003,9 19 0,0
12.11.2019 09:00:00 8,1 1,9 32 18 56 31 WNW 1003,6 50 0,2
12.11.2019 08:00:00 5,8 2,8 46 25 89 48 NNW 1003,6 9 0,8
12.11.2019 07:00:00 7,9 2,8 32 17 93 50 NW 1003,3 49 0,4
12.11.2019 06:00:00 8,1 1,9 35 19 70 38 WNW 1003,3 19 0,2
12.11.2019 05:00:00 6,5 4,2 45 25 72 39 NNW 1003,9 7 0,2
12.11.2019 04:00:00 6,6 4,6 20 11 55 30 NNW 1003,5 19 4,5
12.11.2019 03:00:00 7,5 5,1 27 15 80 43 W 1004,6 34 1,2
12.11.2019 02:00:00 7,6 4,4 32 17 83 45 W 1004,3 18 0,0
12.11.2019 01:00:00 8,4 4,4 41 22 60 33 W 1004,6 19 1,8
12.11.2019 00:00:00 8,6 5,0 36 19 66 36 W 1005,1 9 0,4
11.11.2019 23:00:00 9,5 6,0 36 19 81 44 W 1005,3 19 0,6
11.11.2019 22:00:00 8,6 4,2 26 14 55 30 NNW 1005,6 18 1,7
11.11.2019 21:00:00 7,5 3,4 18 10 70 38 NW 1006,1 12 0,4
11.11.2019 20:00:00 7,8 1,6 37 20 74 40 WNW 1006,2 14 3,4
11.11.2019 19:00:00 8,5 3,1 36 20 62 34 WNW 1006,1 18 0,0
11.11.2019 18:00:00 8,6 3,8 48 26 77 41 WNW 1005,8 20 0,6
11.11.2019 17:00:00 9,7 3,4 32 17 72 39 NW 1005,3 40 0,0
11.11.2019 16:00:00 9,9 2,3 38 20 71 38 WNW 1005,1 28 0,0
11.11.2019 15:00:00 10,2 4,1 34 18 62 33 NW 1005,0 18 0,0
11.11.2019 14:00:00 10,1 4,2 39 21 60 33 NW 1005,3 18 0,0
11.11.2019 13:00:00 9,6 3,6 39 21 57 31 NNW 1004,8 20 0,0
11.11.2019 12:00:00 9,4 3,6 34 19 64 34 NNW 1005,1 20 0,2
11.11.2019 11:00:00 9,0 4,8 37 20 66 36 NNW 1005,1 15 0,6
11.11.2019 10:00:00 7,4 4,4 31 17 70 38 NW 1005,0 1,7 1,9
11.11.2019 09:00:00 7,7 6,9 36 20 61 33 WSW 1004,4 3,5 1,2
11.11.2019 08:00:00 7,0 6,3 26 14 44 24 SSW 1004,6 4,4 1,8
11.11.2019 07:00:00 7,2 6,1 26 14 47 26 SSW 1005,6 4,6 0,8
11.11.2019 06:00:00 7,7 5,5 26 14 42 23 SSW 1006,3 18 0,0
11.11.2019 05:00:00 7,7 5,5 22 12 39 21 SSW 1007,3 27 0,0
11.11.2019 04:00:00 7,6 5,9 20 11 37 20 SSW 1008,5 26 0,0
11.11.2019 03:00:00 7,6 5,4 23 13 40 22 SW 1009,9 30 0,0
11.11.2019 02:00:00 7,1 5,7 15 8 26 14 SSW 1011,0 22 0,0
11.11.2019 01:00:00 7,0 5,1 16 8 26 14 SSW 1011,9 25 0,0
11.11.2019 00:00:00 6,7 4,9 12 7 26 14 SSW 1012,9 22 0,0
10.11.2019 23:00:00 6,8 4,5 12 7 21 11 SSW 1013,6 32 0,0
10.11.2019 22:00:00 7,0 4,5 11 6 23 13 S 1012,8 31 0,0
10.11.2019 21:00:00 7,1 4,6 11 6 25 13 SSE 1012,5 30 0,0
10.11.2019 20:00:00 7,5 5,0 9 5 15 8 SSE 1013,7 18 0,0
10.11.2019 19:00:00 7,7 4,6 4 2 9 5 S 1014,2 21 0,0
10.11.2019 18:00:00 8,0 4,8 6 3 9 5 SE 1014,1 29 0,0
10.11.2019 17:00:00 8,1 4,7 6 3 14 8 ESE 1013,5 35 0,0
10.11.2019 16:00:00 8,3 4,7 12 6 22 12 E 1012,7 42 0,0
10.11.2019 15:00:00 8,0 4,4 16 9 27 14 E 1012,2 43 0,0
10.11.2019 14:00:00 9,0 5,0 17 9 29 15 E 1011,1 17 0,0
10.11.2019 13:00:00 7,9 4,8 19 10 25 14 E 1010,9 30 0,0
10.11.2019 12:00:00 7,9 5,2 16 9 29 16 E 1010,4 37 0,0
10.11.2019 11:00:00 7,5 5,1 19 11 35 19 E 1009,5 20 0,0
10.11.2019 10:00:00 6,0 4,5 17 9 27 15 E 1009,1 41 0,0
10.11.2019 09:00:00 5,4 4,5 18 10 27 15 E 1007,6 31 0,2
10.11.2019 08:00:00 5,2 4,6 15 8 23 12 E 1006,3 10 0,2
10.11.2019 07:00:00 5,5 4,9 12 7 19 10 E 1005,0 26 0,0
10.11.2019 06:00:00 5,4 5,0 9 5 16 8 E 1004,3 28 0,0
10.11.2019 05:00:00 5,7 5,4 9 5 17 9 ESE 1003,8 6 0,2
10.11.2019 04:00:00 5,7 5,3 11 6 18 10 E 1003,6 8 0,0
10.11.2019 03:00:00 5,4 5,1 12 7 21 11 ESE 1003,2 7 0,0
10.11.2019 02:00:00 5,4 5,1 9 5 16 9 SE 1003,0 9 0,0
10.11.2019 01:00:00 5,4 5,0 11 6 20 11 SE 1003,2 14 0,2
10.11.2019 00:00:00 5,4 4,8 11 6 18 10 SE 1003,2 11 0,4
09.11.2019 23:00:00 5,4 4,5 10 5 19 10 SE 1003,2 23 0,4
09.11.2019 22:00:00 5,6 4,4 13 7 25 14 SSE 1003,2 25 0,6
09.11.2019 21:00:00 5,8 4,3 18 10 31 17 S 1003,2 11 0,4
09.11.2019 20:00:00 6,0 4,6 17 9 32 17 SSE 1003,4 7 2,2
09.11.2019 19:00:00 6,6 5,2 17 9 32 18 S 1003,7 7 3,2
09.11.2019 18:00:00 6,7 4,9 17 9 40 22 S 1003,8 10 2,9
09.11.2019 17:00:00 7,1 5,9 20 11 36 20 S 1003,9 6 3,6
09.11.2019 16:00:00 7,9 6,2 14 8 31 17 SSW 1004,3 6 1,6

tt = Température de l'air
td = dewpoint
ff = Vitesse du vent
fx = gusts
dd = Direction du vent
ppp = reduced air pressure
vv = visibility
rr = Quantités de précipitations

stations d'obs. à proximité